[[{"header":{"parameterUnit":"m.s-1","parameterCategory":1,"la1":30.2992,"la2":30.254,"lo1":-89.0895,"lo2":-89.0443,"dy":0.0025,"dx":0.0025,"nx":19,"ny":19,"refTime":"2026-03-20T03:00:00:Z","depth":0,"parameterNumber":2,"parameterNumberName":"U-component_of_WINDS"},"data":[0,0,0,3.4907,3.4912,3.5136,3.5137,3.5433,3.5436,0,0,0,0,0,0,0,0,0,0,0,3.4848,3.485,3.4907,3.4912,3.5136,3.5137,3.5432,3.5436,0,0,0,0,0,0,0,0,0,0,0,3.4847,3.4849,3.4852,3.4913,3.5136,3.5137,3.5432,3.5259,0,0,0,0,0,0,0,0,0,0,3.504,3.4993,3.4849,3.4852,3.4915,3.5135,3.5137,3.5251,3.527,3.5336,0,3.5397,0,3.5421,3.5456,3.5457,0,0,0,3.4907,3.4977,3.503,3.4853,3.4917,3.5135,3.5034,3.5261,3.5283,3.5362,3.5401,3.5412,3.5426,3.5458,3.546,3.5857,3.5859,0,0,3.4895,3.4892,3.5015,3.5045,3.5012,3.5026,3.5041,3.5274,3.5318,3.5402,3.5419,3.5431,3.546,3.5463,3.5855,3.5857,0,0,0,3.4863,3.4884,3.4931,3.5033,3.5072,3.5033,3.5049,3.5307,3.5323,3.5422,3.5434,3.5462,3.5466,3.5853,3.5856,3.5955,0,0,0,3.4855,3.4865,3.4926,3.4927,3.5068,3.5193,3.5077,3.5307,3.5333,3.5433,3.5462,3.5469,3.585,3.5854,3.5948,3.6003,0,0,0,3.4831,3.4862,3.4896,3.4926,3.5022,3.5189,3.5218,3.5312,3.5341,3.5458,3.547,3.5849,3.5854,3.5941,3.5992,3.6105,0,0,0,3.4804,3.4984,3.4898,3.5103,3.502,3.5249,3.5217,3.5388,3.5499,3.5464,3.5851,3.5855,3.5939,3.5985,3.6098,3.6199,3.6242,0,0,3.5029,3.501,3.5131,3.5061,3.5304,3.5215,3.5473,3.5579,3.5593,3.5768,3.5778,3.595,3.5991,3.6104,3.6481,3.6515,0,0,0,3.5201,3.5288,3.5353,3.5459,3.5543,3.5619,3.5685,3.5723,3.5872,3.5682,3.6022,3.6047,3.6113,3.6161,3.619,3.6246,3.5878,3.5878,3.5877,3.5516,3.5523,3.5722,3.5756,3.5858,3.5923,3.6006,3.6069,3.6048,3.6128,3.618,3.6408,3.6465,3.6486,3.6545,3.6235,3.6235,3.6235,3.6236,3.5845,3.5968,3.5933,3.6113,3.6119,3.6271,3.6339,3.6318,3.6459,3.637,3.6429,3.633,3.6523,3.6574,3.6243,3.6242,3.6241,3.624,3.624,3.6052,3.6112,3.6154,3.6305,3.6421,3.6448,3.6584,3.6585,3.6587,3.6645,3.6698,3.6696,3.6694,3.667,3.6671,3.6672,3.6672,3.6673,3.6673,3.6249,3.6294,3.6409,3.6511,3.6576,3.6664,3.6728,3.6793,3.6865,3.6855,3.6855,3.6824,3.6541,3.6469,3.6686,3.6684,3.6682,3.6681,3.668,3.658,3.6504,3.6682,3.6748,3.6865,3.6978,3.6976,3.7108,3.7161,3.7228,3.7184,3.6975,3.6956,3.6934,3.6874,3.7183,3.7183,3.7183,3.7183,3.6754,3.6743,3.6923,3.7028,3.7131,3.7146,3.7344,3.7394,3.7435,3.7468,3.7423,3.7345,3.7321,3.7317,3.7286,3.723,3.7623,3.7623,3.7623,3.6956,3.6956,3.7125,3.7163,3.7254,3.7332,3.7517,3.7638,3.7668,3.7641,3.7494,3.7475,3.7348,3.7306,3.7277,3.7228,3.7126,0,0]},{"header":{"parameterUnit":"m.s-1","parameterCategory":1,"la1":30.2992,"la2":30.254,"lo1":-89.0895,"lo2":-89.0443,"dy":0.0025,"dx":0.0025,"nx":19,"ny":19,"refTime":"2026-03-20T03:00:00:Z","depth":0,"parameterNumber":3,"parameterNumberName":"V-component_of_WINDS"},"data":[0,0,0,-0.2944,-0.2944,-0.2947,-0.2947,-0.2945,-0.2945,0,0,0,0,0,0,0,0,0,0,0,-0.2938,-0.2938,-0.2944,-0.2944,-0.2947,-0.2947,-0.2945,-0.2945,0,0,0,0,0,0,0,0,0,0,0,-0.2938,-0.2938,-0.2938,-0.2944,-0.2947,-0.2947,-0.2945,-0.2945,0,0,0,0,0,0,0,0,0,0,-0.2943,-0.2933,-0.2938,-0.2938,-0.2944,-0.2947,-0.2947,-0.2945,-0.2945,-0.294,0,-0.2934,0,-0.2939,-0.2944,-0.2944,0,0,0,-0.2947,-0.2933,-0.2938,-0.2938,-0.2944,-0.2947,-0.2947,-0.2945,-0.2945,-0.294,-0.2934,-0.2935,-0.2939,-0.2944,-0.2944,-0.2906,-0.2906,0,0,-0.2947,-0.2936,-0.2938,-0.2938,-0.2936,-0.2947,-0.2947,-0.2945,-0.2938,-0.2934,-0.2935,-0.2939,-0.2944,-0.2944,-0.2906,-0.2906,0,0,0,-0.2944,-0.2936,-0.2941,-0.2938,-0.2939,-0.2947,-0.2947,-0.2938,-0.2941,-0.2935,-0.2939,-0.2944,-0.2944,-0.2907,-0.2906,-0.2879,0,0,0,-0.2944,-0.2934,-0.2941,-0.2935,-0.2939,-0.2938,-0.294,-0.2941,-0.2941,-0.2939,-0.2944,-0.2944,-0.2907,-0.2907,-0.2881,-0.2867,0,0,0,-0.294,-0.2934,-0.2933,-0.2934,-0.2935,-0.2939,-0.2941,-0.2941,-0.2944,-0.2944,-0.2944,-0.2907,-0.2907,-0.2882,-0.287,-0.2854,0,0,0,-0.2931,-0.2908,-0.2932,-0.2908,-0.2935,-0.2922,-0.2942,-0.2932,-0.2929,-0.2944,-0.2907,-0.2906,-0.2882,-0.2871,-0.2856,-0.2839,-0.2831,0,0,-0.2896,-0.2903,-0.289,-0.2912,-0.2892,-0.2922,-0.2899,-0.2906,-0.2916,-0.2909,-0.2908,-0.288,-0.287,-0.2855,-0.2792,-0.2786,0,0,0,-0.2875,-0.2865,-0.2862,-0.2859,-0.2864,-0.2868,-0.288,-0.2883,-0.2878,-0.291,-0.2871,-0.2865,-0.2857,-0.2849,-0.2844,-0.2838,-0.2903,-0.2903,-0.2903,-0.2807,-0.2822,-0.2802,-0.2817,-0.2814,-0.2828,-0.2827,-0.2833,-0.2848,-0.2839,-0.2837,-0.2797,-0.2788,-0.2784,-0.2777,-0.283,-0.283,-0.2829,-0.2829,-0.2756,-0.2744,-0.2767,-0.2755,-0.2771,-0.2761,-0.2775,-0.2786,-0.278,-0.2799,-0.2793,-0.2812,-0.2776,-0.2771,-0.2828,-0.2828,-0.2828,-0.2828,-0.2828,-0.2713,-0.271,-0.2715,-0.2713,-0.2709,-0.2727,-0.272,-0.2735,-0.2749,-0.2743,-0.2742,-0.2743,-0.2745,-0.2742,-0.2742,-0.2741,-0.2741,-0.2741,-0.2741,-0.2665,-0.2672,-0.2664,-0.2669,-0.267,-0.2673,-0.2688,-0.269,-0.2695,-0.2707,-0.2707,-0.2723,-0.277,-0.2781,-0.2739,-0.2739,-0.274,-0.274,-0.274,-0.2606,-0.2622,-0.261,-0.2611,-0.2619,-0.2616,-0.2636,-0.2638,-0.2642,-0.2638,-0.2657,-0.2689,-0.2698,-0.2702,-0.2711,-0.2654,-0.2654,-0.2654,-0.2654,-0.2569,-0.2575,-0.2567,-0.2568,-0.257,-0.2588,-0.2575,-0.2587,-0.2603,-0.2606,-0.2617,-0.2631,-0.2635,-0.2642,-0.2647,-0.2656,-0.2585,-0.2585,-0.2585,-0.2533,-0.2541,-0.2526,-0.2542,-0.255,-0.2557,-0.2546,-0.2546,-0.2567,-0.2583,-0.2609,-0.2612,-0.2635,-0.2642,-0.2656,-0.2665,-0.2681,0,0]}]]